Van, Turkey

12:10 PM +03 on March 27, 2017 (GMT +0300)
Van

Weather History for LTCI - March, 2013

Change the Weather History Date:

Wednesday, March 27, 2013

  Actual Average Record
Temperature  
Mean Temperature 44 °F -  
Max Temperature 56 °F 53 °F 62 °F (2001)
Min Temperature 31 °F 35 °F 21 °F (2005)
Degree Days  
Heating Degree Days 22    
Moisture  
Dew Point 25 °F    
Average Humidity 43    
Maximum Humidity 87    
Minimum Humidity 18    
Precipitation  
Precipitation 0.01 in 0.07 in - ()
Sea Level Pressure  
Sea Level Pressure 29.88 in    
Wind  
Wind Speed 11 mph ()    
Max Wind Speed 25 mph    
Max Gust Speed 37 mph    
Visibility 5.2 miles    
Events Rain    
Averages and records for this station are not official NWS values.
T = Trace of Precipitation, MM = Missing Value Source: Averaged Metar Reports

Daily Weather History Graph

Daily Weather History Graph

Search for Another Location

Airport or City:

Trip Planner

Search our weather history database for the weather conditions in past years. The results will help you decide how hot, cold, wet, or windy it might be!

Date:

Astronomy

Mar. 27, 2013 Rise Set
Actual Time 4:59 AM EET 5:25 PM EET
Civil Twilight 4:33 AM EET 5:51 PM EET
Nautical Twilight 4:01 AM EET 6:23 PM EET
Astronomical Twilight 3:30 AM EET 6:54 PM EET
Moon 5:43 PM EET 4:37 AM EET
Length of Visible Light 13h 18m
Length of Day
12h 25m
Full, 100% of the Moon is Illuminated
Mar 27
Full
Apr 3
Last Quarter
Apr 10
New
Apr 18
First Quarter
Apr 25
Full

Hourly Weather History & Observations

Time (EET) Temp. Windchill Dew Point Humidity Pressure Visibility Wind Dir Wind Speed Gust Speed Precip Events Conditions
12:50 AM 32.0 °F 25.6 °F 28.4 °F 87% 29.98 in 3.7 mi East 6.9 mph - N/A   Mostly Cloudy
1:50 AM 41.0 °F 39.0 °F 19.4 °F 42% 29.92 in 3.7 mi Variable 3.5 mph - N/A   Mostly Cloudy
2:00 AM 40 °F - 17 °F 26%  in 4 mi NNW 3.5 mph - -   Haze
2:22 AM 44.6 °F 36.9 °F 15.8 °F 31% 29.89 in 3.7 mi SSE 18.4 mph - N/A   Mostly Cloudy
2:50 AM 44.6 °F 37.2 °F 15.8 °F 31% 29.89 in 3.7 mi SE 17.3 mph - N/A   Mostly Cloudy
3:50 AM 46.4 °F 39.5 °F 14.0 °F 27% 29.86 in 4.3 mi SE 17.3 mph - N/A   Mostly Cloudy
4:50 AM 46.4 °F 40.1 °F 14.0 °F 27% 29.86 in 4.3 mi SSE 15.0 mph - N/A   Mostly Cloudy
5:50 AM 48.2 °F - 15.8 °F 27% 29.89 in 6.2 mi SW 8.1 mph - N/A   Mostly Cloudy
6:50 AM 42.8 °F 40.1 °F 30.2 °F 61% 29.92 in 6.2 mi East 4.6 mph - N/A   Mostly Cloudy
7:50 AM 50.0 °F - 23.0 °F 35% 29.89 in 6.2 mi East 9.2 mph 24.2 mph N/A   Mostly Cloudy
8:00 AM 50 °F - 25 °F 24%  in 6 mi East 9.2 mph - -   Mostly Cloudy
8:50 AM 50.0 °F - 26.6 °F 40% 29.89 in 6.2 mi South 19.6 mph - N/A   Mostly Cloudy
9:50 AM 50.0 °F - 28.4 °F 43% 29.86 in 5.0 mi South 25.3 mph - N/A   Mostly Cloudy
10:50 AM 50.0 °F - 28.4 °F 43% 29.86 in 5.0 mi SSE 24.2 mph 36.8 mph N/A   Mostly Cloudy
11:50 AM 53.6 °F - 24.8 °F 33% 29.83 in 5.0 mi South 20.7 mph - N/A   Mostly Cloudy
12:50 PM 55.4 °F - 26.6 °F 33% 29.83 in 5.0 mi SSW 18.4 mph - N/A   Mostly Cloudy
1:50 PM 55.4 °F - 24.8 °F 31% 29.83 in 5.0 mi South 18.4 mph - N/A   Mostly Cloudy
2:00 PM 56 °F - 25 °F 18%  in 5 mi South 18.4 mph - -   Blowing Sand
2:50 PM 53.6 °F - 24.8 °F 33% 29.83 in 5.0 mi South 15.0 mph - N/A   Mostly Cloudy
3:50 PM 53.6 °F - 24.8 °F 33% 29.80 in 5.0 mi South 18.4 mph - N/A   Mostly Cloudy
4:50 PM 50.0 °F - 21.2 °F 32% 29.83 in 5.0 mi South 20.7 mph - N/A   Mostly Cloudy
5:50 PM 48.2 °F - 24.8 °F 40% 29.86 in 5.0 mi SSW 16.1 mph - N/A   Mostly Cloudy
6:50 PM 46.4 °F 40.1 °F 23.0 °F 40% 29.86 in 5.0 mi South 15.0 mph - N/A   Mostly Cloudy
7:50 PM 44.6 °F 38.8 °F 21.2 °F 39% 29.89 in 6.2 mi SSE 11.5 mph - N/A   Scattered Clouds
8:00 PM 45 °F - 22 °F 27%  in 6 mi SSE 11.5 mph - -   Scattered Clouds
8:50 PM 44.6 °F 39.7 °F 24.8 °F 46% 29.92 in 6.2 mi South 9.2 mph - N/A   Scattered Clouds
9:50 PM 41.0 °F 33.5 °F 37.4 °F 87% 29.95 in 6.2 mi NW 13.8 mph - N/A   Scattered Clouds
10:15 PM 41.0 °F 33.9 °F 37.4 °F 87% 29.95 in 6.2 mi WNW 12.7 mph - N/A Rain Light Rain Showers
10:50 PM 39.2 °F 33.6 °F 35.6 °F 87% 29.95 in 6.2 mi North 8.1 mph - N/A Rain Light Rain Showers
11:50 PM 39.2 °F 34.2 °F 35.6 °F 87% 29.95 in 6.2 mi ENE 6.9 mph - N/A Rain Light Rain Showers